NOAA NWS Hourly Roundups by Site

Regional Weather Roundup for Twin Cities, MN

To Select Another Site Choose from List

Select Site:  

484
ASUS43 KMPX 150510
RWRMN
WEATHER ROUNDUP FOR MINNESOTA
NATIONAL WEATHER SERVICE TWIN CITIES/CHANHASSEN MN
1200 AM CDT MON JUL 15 2024


NOTE: "FAIR" INDICATES FEW OR NO CLOUDS BELOW 12,000 FEET WITH NO
SIGNIFICANT WEATHER AND/OR OBSTRUCTIONS TO VISIBILITY. N/A MEANS
CURRENT SKY AND/OR WEATHER CONDITIONS ARE NOT AVAILABLE.

MNZ060>063-068>070-150600-
   Twin Cities Metro

CITY           SKY/WX    TMP DP  RH WIND       PRES   REMARKS
TWIN CITIES    CLEAR     77  68  73 NW5       29.86S
ST PAUL        CLEAR     74  70  87 CALM      29.85S
CRYSTAL        CLEAR     73  68  84 CALM      29.85
BLAINE         CLEAR     72  66  83 CALM      29.86S
LAKEVILLE      CLEAR     72  66  83 CALM      29.88S
EDEN PRAIRIE   CLEAR     76  70  82 NW3       29.85S
SOUTH ST PAUL  CLEAR     75  68  79 CALM      29.85S
LAKE ELMO      CLEAR     68  68 100 CALM      29.87S
$$
MNZ001>005-007-008-013>017-022>024-027-028-150600-
   Northwest Minnesota

CITY           SKY/WX    TMP DP  RH WIND       PRES   REMARKS
BEMIDJI        MOCLDY    63  62  94 CALM      29.88S
HALLOCK        CLOUDY    70  66  88 S8        29.79F
ROSEAU         MOCLDY    66  64  94 S5        29.82F
WARROAD        MOCLDY    70  64  83 SW3       29.83F
THIEF RVR FALL CLOUDY    68  64  87 S5        29.85F FOG
CROOKSTON      CLOUDY    70  61  73 SE6       29.82F
FOSSTON        MOCLDY    66  66 100 CALM      29.86F
DETROIT LAKES  PTCLDY    68  63  83 CALM      29.87S
MOORHEAD       MOCLDY    70  64  83 E7        29.82F
PARK RAPIDS    PTCLDY    66  62  87 W3        29.89R
MAHNOMEN       MOCLDY    71  62  73 S5        29.85F
$$
MNZ006-009>011-018-025>026-150600-
   North Central Minnesota

CITY           SKY/WX    TMP DP  RH WIND       PRES   REMARKS
BAUDETTE       MOCLDY    69  61  75 CALM      29.84F
FLAG ISLAND    MOCLDY    72  57  60 CALM      29.82F HAZE
INTL FALLS     PTCLDY    58  55  90 CALM      29.84F
BIG FORK       MOCLDY    63  61  94 CALM      29.92F
LONGVILLE        N/A     63  63 100 CALM      29.88R FOG
GRAND RAPIDS   PTCLDY    63  61  93 CALM      29.90R
CRANE LAKE     PTCLDY    57  55  94 CALM      29.89R
ORR            RAIN      57  57 100 CALM      29.85S
COOK           PTCLDY    61  57  88 CALM      29.88R
WALKER         PTCLDY    62  62 100 CALM      29.88R
$$
MNZ012-019>021-037-150600-
   Northeast Minnesota

CITY           SKY/WX    TMP DP  RH WIND       PRES   REMARKS
DULUTH         PTCLDY    67  59  75 CALM      29.87S
ELY            MOCLDY    59  57  94 CALM      29.89S
HIBBING        PTCLDY    57  56  96 NW3       29.88R
DULUTH HARBOR  CLEAR     73  64  73 CALM      29.83S
TWO HARBORS    PTCLDY    66  57  72 NW3       29.85S
GRAND MARAIS     N/A     71  55  56 N9        29.81F
G MARAIS ARPRT CLEAR     61  45  55 CALM      29.87S
$$
MNZ029>031-032-039>041-046>048-054>057-064-150600-
   West Central Minnesota

CITY           SKY/WX    TMP DP  RH WIND       PRES   REMARKS
FERGUS FALLS   PTCLDY    70  70 100 E6        29.84F
WHEATON        PTCLDY    68  64  88 SE8       29.84F
MORRIS         PTCLDY    68  66  94 E7        29.83F
ALEXANDRIA     PTCLDY    70  64  81 CALM      29.89F
ELBOW LAKE     PTCLDY    74  67  78 SE3       29.86F
WADENA           N/A     64  63  94 CALM      29.88R
GLENWOOD       PTCLDY    66  63  88 CALM      29.89S
APPLETON       PTCLDY    72  64  78 SE3       29.85S
BENSON         PTCLDY    66  64  94 CALM      29.87F
ORTONVILLE     PTCLDY    73  64  73 SE6       29.85S
MADISON        PTCLDY    75  72  88 SE7       29.87F
WILLMAR        CLEAR     70  68  94 CALM      29.87F
$$
MNZ033>034-036-042>043-049>051-058-059-150600-
   Central Minnesota

CITY           SKY/WX    TMP DP  RH WIND       PRES   REMARKS
ST CLOUD       CLEAR     71  67  87 CALM      29.86S
SAUK CENTRE    CLEAR     66  66 100 CALM      29.88F
PAYNESVILLE    CLEAR     64  64 100 CALM      29.89S
AITKIN         PTCLDY    61  59  94 CALM      29.87S
PINE RIVER     CLEAR     66  63  88 CALM      29.91S
BRAINERD       CLEAR     67  64  90 CALM      29.87S
STAPLES        CLEAR     72  64  78 CALM      29.87S
LITTLE FALLS   CLEAR     64  64 100 CALM      29.86F
CAMP RIPLEY    CLOUDY    70  66  88 CALM      29.84S
LITCHFIELD     CLEAR     68  64  88 CALM      29.87F
BUFFALO        MOCLDY    70  70 100 CALM      29.86S
MAPLE LAKE     CLEAR     69  66  92 CALM      29.88R
HUTCHINSON     CLEAR     71  68  92 CALM      29.89S
$$
MNZ037-044-045-052-053-150600-
   East Central Minnesota

CITY           SKY/WX    TMP DP  RH WIND       PRES   REMARKS
PRINCETON      CLEAR     70  68  94 CALM      29.87S
MORA           CLEAR     64  64 100 CALM      29.90F
CAMBRIDGE      CLEAR     66  63  88 CALM      29.86S
RUSH CITY      PTCLDY    67  60  80 CALM      29.87S
MOOSE LAKE     PTCLDY    63  61  94 CALM      29.88R
HINCKLEY       CLEAR     66  64  94 CALM      29.87F
CLOQUET        PTCLDY    64  57  77 NW3       29.86S
MCGREGOR       PTCLDY    63  61  94 CALM      29.87F
$$
MNZ071>073-080-081-089-090-097-098-150600-
   Southwest Minnesota

CITY           SKY/WX    TMP DP  RH WIND       PRES   REMARKS
MONTEVIDEO     PTCLDY    72  64  78 SE5       29.86F
CANBY          PTCLDY    72  69  89 CALM      29.87F
MARSHALL       CLEAR     73  70  90 CALM      29.88F
REDWOOD FALLS  CLEAR     73  68  84 CALM      29.87F
OLIVIA         CLEAR     72  66  83 CALM      29.87F
WINDOM         CLEAR     72  66  83 CALM      29.90S
WORTHINGTON    CLEAR     73  69  87 SE5       29.92F
JACKSON        CLEAR     72  66  83 CALM      29.91
TRACY          CLEAR     72  72 100 S5        29.88F
SLAYTON        CLEAR     73  65  78 SE3       29.92S
$$
MNZ065>067-074>077-082>085-091>093-150600-
   South Central Minnesota

CITY           SKY/WX    TMP DP  RH WIND       PRES   REMARKS
MANKATO        CLEAR     76  73  91 SE3       29.88S
ST JAMES       CLEAR     72  72 100 CALM      29.88S
FAIRMONT       CLEAR     73  70  90 CALM      29.90S
GLENCOE        CLEAR     71  68  91 CALM      29.87S
FARIBAULT      CLEAR     70  68  94 CALM      29.89R
OWATONNA       CLEAR     72  68  88 CALM      29.89R
WASECA         CLEAR     70  68  94 CALM      29.90S
ALBERT LEA     CLEAR     70  70 100 CALM      29.90R
$$
MNZ078>079-086>088-094>096-150600-
   Southeast Minnesota

CITY           SKY/WX    TMP DP  RH WIND       PRES   REMARKS
ROCHESTER      PTCLDY    73  71  93 W6        29.88S
RED WING       CLEAR     72  70  94 CALM      29.85R
STANTON        CLEAR     71  69  94 S3        29.87S
DODGE CENTER   CLEAR     72  70  94 CALM      29.90R
WINONA         CLEAR     73  72  94 CALM      29.85S
AUSTIN         CLEAR     73  72  94 CALM      29.90R
PRESTON        CLEAR     73  73 100 W6        29.88R
$$
ABBREVIATIONS USED IN REMARKS
   TC - TEMPERATURES IN CELSIUS
  WCI - WIND CHILL INDEX
   HX - HEAT INDEX
  VSB - VISIBILITY
$$



 

View Past Reports for Twin Cities, MN.

Products Courtesy of NOAA-NWS
NWS Information Parsing Script by Ken True at Saratoga Weather - Script by SE Lincoln Weather.